EW5168 Weather Reports


Display with metric or nautical units.
time (UTC)temp
F
wind
direction
speed
MPH
gust
MPH
rain 1hr
in
rain 24hr
in
rain mn
in
humidity
%
barometer
mb
20260507180108 64 31 1.0 6.0 0.00 0.00 0.00 32 1017.4
20260507175604 64 64 1.0 6.0 0.00 0.00 0.00 31 1017.4
20260507175104 64 69 1.0 2.0 0.00 0.00 0.00 31 1018.0
20260507174604 64 71 1.0 4.0 0.00 0.00 0.00 31 1018.2
20260507174103 64 61 1.0 4.0 0.00 0.00 0.00 31 1018.0
20260507173603 64 79 0.0 3.0 0.00 0.00 0.00 30 1018.6
20260507173102 64 79 0.0 3.0 0.00 0.00 0.00 30 1018.9
20260507172602 63 67 0.0 2.0 0.00 0.00 0.00 30 1018.8
20260507172100 63 26 0.0 2.0 0.00 0.00 0.00 30 1018.8
20260507171600 63 29 0.0 3.0 0.00 0.00 0.00 30 1019.0
20260507171104 62 62 0.0 3.0 0.00 0.00 0.00 31 1018.6
20260507171100 63 319 0.0 3.0 0.00 0.00 0.00 30 1019.2
20260507170059 62 70 1.0 3.0 0.00 0.00 0.00 31 1018.7
20260507165559 62 33 1.0 3.0 0.00 0.00 0.00 31 1018.5
20260507165100 62 64 1.0 2.0 0.00 0.00 0.00 31 1018.8
20260507164604 62 33 1.0 4.0 0.00 0.00 0.00 31 1018.6
20260507164559 62 17 1.0 4.0 0.00 0.00 0.00 31 1018.9
20260507163600 62 55 0.0 4.0 0.00 0.00 0.00 31 1018.2
20260507163100 62 319 1.0 4.0 0.00 0.00 0.00 30 1018.6
20260507162601 62 307 1.0 4.0 0.00 0.00 0.00 30 1018.8
20260507162059 62 79 1.0 4.0 0.00 0.00 0.00 30 1018.6
20260507161604 62 63 1.0 3.0 0.00 0.00 0.00 29 1018.3
20260507161600 62 24 1.0 3.0 0.00 0.00 0.00 29 1018.7
20260507160558 62 76 1.0 5.0 0.00 0.00 0.00 29 1018.5
20260507160057 62 10 2.0 5.0 0.00 0.00 0.00 29 1018.5
20260507155058 61 65 2.0 6.0 0.00 0.00 0.00 29 1018.3
20260507154558 61 94 2.0 8.0 0.00 0.00 0.00 28 1018.1
20260507154055 61 46 1.0 8.0 0.00 0.00 0.00 28 1018.0
20260507153555 61 38 1.0 3.0 0.00 0.00 0.00 27 1018.5
20260507153056 61 5 1.0 3.0 0.00 0.00 0.00 26 1018.7
20260507152556 61 54 2.0 6.0 0.00 0.00 0.00 27 1018.6
20260507152055 61 68 2.0 6.0 0.00 0.00 0.00 26 1018.9
20260507151559 60 62 2.0 7.0 0.00 0.00 0.00 24 1018.8
20260507151555 60 86 1.0 4.0 0.00 0.00 0.00 25 1019.0
20260507150556 60 42 2.0 7.0 0.00 0.00 0.00 22 1018.7
20260507150055 60 78 1.0 6.0 0.00 0.00 0.00 22 1018.7
20260507145555 59 65 1.0 9.0 0.00 0.00 0.00 20 1018.5
20260507145055 59 15 1.0 9.0 0.00 0.00 0.00 18 1018.7
20260507144555 59 355 2.0 5.0 0.00 0.00 0.00 15 1018.8
20260507144100 58 28 1.0 4.0 0.00 0.00 0.00 6 1018.5
20260507144056 58 78 2.0 5.0 0.00 0.00 0.00 10 1018.5
20260507143059 57 28 1.0 7.0 0.00 0.00 0.00 1 1018.2
20260507143055 57 29 2.0 7.0 0.00 0.00 0.00 4 1018.2
20260507142054 57 24 1.0 5.0 0.00 0.00 0.00 1 1018.2
20260507141554 56 32 1.0 5.0 0.00 0.00 0.00 1 1018.5
20260507141054 56 5 1.0 4.0 0.00 0.00 0.00 1 1018.6
20260507140552 56 50 1.0 4.0 0.00 0.00 0.00 1 1018.8
20260507140053 56 55 1.0 5.0 0.00 0.00 0.00 1 1019.0
20260507135558 56 55 1.0 2.0 0.00 0.00 0.00 1 1019.1
20260507135554 56 44 1.0 5.0 0.00 0.00 0.00 1 1019.1
20260507135159 56 331 1.0 3.0 0.00 0.00 0.00 1 1019.1
20260507134057 56 344 1.0 3.0 0.00 0.00 0.00 1 1019.4
20260507134053 56 13 1.0 3.0 0.00 0.00 0.00 1 1019.0
20260507133052 56 336 1.0 3.0 0.00 0.00 0.00 1 1019.4
20260507132553 56 13 1.0 5.0 0.00 0.00 0.00 1 1019.4
20260507132054 56 329 1.0 5.0 0.00 0.00 0.00 1 1019.2
20260507131553 56 334 1.0 3.0 0.00 0.00 0.00 1 1019.4
20260507131053 56 320 1.0 4.0 0.00 0.00 0.00 1 1019.1
20260507130551 56 46 1.0 4.0 0.00 0.00 0.00 1 1019.2
20260507130052 56 5 1.0 4.0 0.00 0.00 0.00 1 1019.0
20260507125550 56 19 1.0 5.0 0.00 0.00 0.00 1 1018.9
20260507125049 56 329 1.0 5.0 0.00 0.00 0.00 1 1018.8
20260507124549 56 318 1.0 4.0 0.00 0.00 0.00 1 1018.7
20260507124049 56 323 1.0 4.0 0.00 0.00 0.00 1 1018.5
20260507123549 56 355 0.0 3.0 0.00 0.00 0.00 1 1018.6
20260507123049 56 323 0.0 2.0 0.00 0.00 0.00 1 1018.9
20260507122553 56 325 1.0 6.0 0.00 0.00 0.00 1 1019.0
20260507122549 56 309 0.0 6.0 0.00 0.00 0.00 1 1018.9
20260507121549 56 317 1.0 4.0 0.00 0.00 0.00 1 1019.0
20260507121054 56 325 0.0 3.0 0.00 0.00 0.00 1 1018.7
20260507121050 56 323 0.0 3.0 0.00 0.00 0.00 1 1018.7
20260507120050 56 23 0.0 2.0 0.00 0.00 0.00 1 1018.6
20260507115555 57 329 1.0 3.0 0.00 0.00 0.00 1 1018.3
20260507115549 57 44 0.0 3.0 0.00 0.00 0.00 1 1018.2
20260507114547 57 0 0.0 2.0 0.00 0.00 0.00 1 1018.1
20260507114047 57 309 0.0 2.0 0.00 0.00 0.00 1 1018.3
20260507113547 57 55 1.0 3.0 0.00 0.00 0.00 1 1018.0
20260507113045 57 43 1.0 3.0 0.00 0.00 0.00 1 1017.9
20260507112543 58 346 1.0 3.0 0.00 0.00 0.00 1 1017.8
20260507112043 58 340 1.0 3.0 0.00 0.00 0.00 1 1017.8
20260507111544 58 21 0.0 4.0 0.00 0.00 0.00 1 1017.9
20260507111041 58 321 1.0 4.0 0.00 0.00 0.00 1 1018.0
20260507110541 58 318 1.0 2.0 0.00 0.00 0.00 1 1018.0
20260507110040 58 355 0.0 3.0 0.00 0.00 0.00 1 1017.7
20260507105540 58 315 0.0 3.0 0.00 0.00 0.00 1 1017.8
20260507105043 58 21 0.0 2.0 0.00 0.00 0.00 1 1017.9
20260507105039 58 328 0.0 2.0 0.00 0.00 0.00 1 1017.9
20260507104039 58 325 0.0 3.0 0.00 0.00 0.00 1 1018.0
20260507103541 58 302 1.0 5.0 0.00 0.00 0.00 1 1017.9
20260507103537 58 325 1.0 3.0 0.00 0.00 0.00 1 1018.0
20260507102537 58 345 1.0 5.0 0.00 0.00 0.00 1 1018.0
20260507102035 58 355 0.0 3.0 0.00 0.00 0.00 1 1017.8
20260507101534 58 336 0.0 3.0 0.00 0.00 0.00 1 1017.7
20260507101036 58 19 0.0 2.0 0.00 0.00 0.00 1 1017.6
20260507100538 58 78 0.0 2.0 0.00 0.00 0.00 1 1017.8
20260507100534 58 19 0.0 2.0 0.00 0.00 0.00 1 1017.6
20260507095533 58 25 1.0 3.0 0.00 0.00 0.00 1 1017.3
20260507095032 58 22 1.0 3.0 0.00 0.00 0.00 1 1017.1
20260507094531 58 355 1.0 3.0 0.00 0.00 0.00 1 1017.2
20260507094031 58 326 1.0 3.0 0.00 0.00 0.00 1 1017.3
20260507093529 58 119 1.0 3.0 0.00 0.00 0.00 1 1017.2
20260507093028 58 33 0.0 2.0 0.00 0.00 0.00 1 1017.2
20260507092526 58 317 0.0 2.0 0.00 0.00 0.00 1 1017.1
20260507092027 58 321 0.0 2.0 0.00 0.00 0.00 1 1017.0
20260507091630 58 17 1.0 4.0 0.00 0.00 0.00 1 1016.7
20260507091531 58 24 1.0 4.0 0.00 0.00 0.00 1 1016.6
20260507091526 58 20 0.0 3.0 0.00 0.00 0.00 1 1016.8
20260507090027 58 72 1.0 4.0 0.00 0.00 0.00 1 1016.5
20260507090023 58 69 1.0 4.0 0.00 0.00 0.00 1 1016.3
20260507085022 58 62 0.0 2.0 0.00 0.00 0.00 1 1016.2
20260507084522 58 34 1.0 3.0 0.00 0.00 0.00 1 1016.1
20260507084022 58 62 1.0 4.0 0.00 0.00 0.00 1 1016.0
20260507084018 58 95 1.0 4.0 0.00 0.00 0.00 1 1016.2
20260507083017 58 46 1.0 4.0 0.00 0.00 0.00 1 1015.9
20260507082517 58 51 1.0 4.0 0.00 0.00 0.00 1 1015.7
20260507082016 58 61 1.0 4.0 0.00 0.00 0.00 1 1015.9
20260507081520 58 325 1.0 3.0 0.00 0.00 0.00 1 1015.6
20260507081516 58 34 1.0 4.0 0.00 0.00 0.00 1 1015.8
20260507080516 58 342 1.0 7.0 0.00 0.00 0.00 1 1015.5
20260507080017 58 0 1.0 7.0 0.00 0.00 0.00 1 1015.2
20260507075517 58 355 1.0 3.0 0.00 0.00 0.00 1 1015.1
20260507075019 58 62 1.0 3.0 0.00 0.00 0.00 1 1015.3
20260507075015 58 53 1.0 3.0 0.00 0.00 0.00 1 1015.2
20260507074014 58 26 0.0 2.0 0.00 0.00 0.00 1 1015.2
20260507073515 58 19 1.0 2.0 0.00 0.00 0.00 1 1015.3
20260507073015 58 53 0.0 2.0 0.00 0.00 0.00 1 1015.2
20260507072514 58 355 0.0 3.0 0.00 0.00 0.00 1 1015.5
20260507072017 58 65 0.0 3.0 0.00 0.00 0.00 1 1015.6
20260507072013 58 32 0.0 3.0 0.00 0.00 0.00 1 1015.2
20260507071010 58 0 0.0 3.0 0.00 0.00 0.00 1 1015.1
20260507070509 58 61 0.0 2.0 0.00 0.00 0.00 1 1015.3
20260507070010 58 15 0.0 2.0 0.00 0.00 0.00 1 1015.4
20260507065504 58 15 0.0 2.0 0.00 0.00 0.00 1 1015.4
20260507065004 58 5 0.0 1.0 0.00 0.00 0.00 1 1015.4
20260507064503 58 24 0.0 2.0 0.00 0.00 0.00 1 1015.5
20260507063958 58 19 1.0 3.0 0.00 0.00 0.00 1 1015.5
20260507063458 58 50 0.0 3.0 0.00 0.00 0.00 1 1015.5
20260507062959 58 321 0.0 4.0 0.00 0.00 0.00 1 1015.5
20260507062459 58 0 1.0 4.0 0.00 0.00 0.00 1 1015.5
20260507061958 58 49 1.0 5.0 0.00 0.00 0.00 1 1015.4
20260507061458 58 58 1.0 6.0 0.00 0.00 0.00 1 1015.6
20260507060958 58 54 1.0 6.0 0.00 0.00 0.00 1 1015.6
20260507060458 58 44 1.0 4.0 0.00 0.00 0.00 1 1015.6
20260507055958 58 61 1.0 4.0 0.00 0.00 0.00 1 1015.8
20260507055458 59 0 1.0 8.0 0.00 0.00 0.00 1 1015.8
20260507054957 59 63 2.0 8.0 0.00 0.00 0.00 1 1015.7
20260507054456 59 60 2.0 9.0 0.00 0.00 0.00 1 1015.5
20260507053956 59 94 2.0 9.0 0.00 0.00 0.00 1 1015.6
20260507053456 59 65 2.0 5.0 0.00 0.00 0.00 1 1015.7
20260507052953 59 27 2.0 8.0 0.00 0.00 0.00 1 1015.7
20260507052453 59 61 2.0 8.0 0.00 0.00 0.00 1 1015.5
20260507051952 59 54 2.0 6.0 0.00 0.00 0.00 1 1015.4
20260507051452 59 64 2.0 4.0 0.00 0.00 0.00 1 1015.6
20260507050954 59 77 2.0 4.0 0.00 0.00 0.00 1 1015.5
20260507050950 59 324 2.0 5.0 0.00 0.00 0.00 1 1015.6
20260507045949 59 47 1.0 5.0 0.00 0.00 0.00 1 1015.6
20260507045451 59 69 1.0 5.0 0.00 0.00 0.00 1 1015.9
20260507044950 60 45 2.0 4.0 0.00 0.00 0.00 1 1015.8
20260507044450 60 44 1.0 4.0 0.00 0.00 0.00 1 1015.7
20260507043949 60 60 1.0 4.0 0.00 0.00 0.00 1 1015.6
20260507043453 60 44 1.0 3.0 0.00 0.00 0.00 1 1015.4
20260507043449 60 73 1.0 4.0 0.00 0.00 0.00 1 1015.4
20260507042555 60 53 1.0 3.0 0.00 0.00 0.00 1 1015.4
20260507042452 60 351 1.0 5.0 0.00 0.00 0.00 1 1015.5
20260507042448 60 59 1.0 5.0 0.00 0.00 0.00 1 1015.5
20260507040947 60 26 1.0 3.0 0.00 0.00 0.00 1 1015.6
20260507040445 60 68 1.0 3.0 0.00 0.00 0.00 1 1015.6
20260507035945 60 52 1.0 3.0 0.00 0.00 0.00 1 1015.7
20260507035446 60 39 1.0 3.0 0.00 0.00 0.00 1 1015.8
20260507034943 60 355 1.0 3.0 0.00 0.00 0.00 1 1015.7
20260507034443 60 30 1.0 4.0 0.00 0.00 0.00 1 1015.6
20260507033943 60 350 1.0 4.0 0.00 0.00 0.00 1 1015.8
20260507033445 61 12 1.0 2.0 0.00 0.00 0.00 1 1015.8
20260507033441 61 326 1.0 3.0 0.00 0.00 0.00 1 1015.9
20260507032442 61 309 1.0 3.0 0.00 0.00 0.00 1 1015.8
20260507031941 61 313 1.0 3.0 0.00 0.00 0.00 1 1015.9
20260507031439 61 246 1.0 3.0 0.00 0.00 0.00 1 1015.8
20260507030939 61 25 1.0 3.0 0.00 0.00 0.00 1 1015.7
20260507030439 61 53 1.0 2.0 0.00 0.00 0.00 1 1015.5
20260507025938 61 19 0.0 2.0 0.00 0.00 0.00 1 1015.5
20260507025437 61 50 1.0 2.0 0.00 0.00 0.00 1 1015.5
20260507024937 61 314 1.0 2.0 0.00 0.00 0.00 1 1015.6
20260507024436 61 311 1.0 3.0 0.00 0.00 0.00 1 1015.4
20260507023936 61 306 1.0 3.0 0.00 0.00 0.00 1 1015.4
20260507023436 61 329 1.0 3.0 0.00 0.00 0.00 1 1015.2
20260507022935 61 28 1.0 3.0 0.00 0.00 0.00 1 1015.1
20260507022435 61 28 1.0 2.0 0.00 0.00 0.00 1 1015.0
20260507021935 61 30 1.0 3.0 0.00 0.00 0.00 1 1014.9
20260507021434 61 34 1.0 3.0 0.00 0.00 0.00 1 1014.8
20260507020939 61 321 1.0 3.0 0.00 0.00 0.00 1 1014.5
20260507020935 61 69 1.0 3.0 0.00 0.00 0.00 1 1014.5
20260507020541 61 310 1.0 2.0 0.00 0.00 0.00 1 1014.4
20260507015437 61 333 1.0 2.0 0.00 0.00 0.00 1 1014.3
20260507015432 61 15 1.0 3.0 0.00 0.00 0.00 1 1014.2
20260507015036 61 30 0.0 2.0 0.00 0.00 0.00 1 1014.4
20260507013931 61 302 1.0 3.0 0.00 0.00 0.00 1 1014.0
20260507013435 61 332 0.0 3.0 0.00 0.00 0.00 1 1014.0
20260507013431 61 355 1.0 3.0 0.00 0.00 0.00 1 1013.5
20260507012429 61 325 1.0 3.0 0.00 0.00 0.00 1 1013.6
20260507011929 61 319 1.0 3.0 0.00 0.00 0.00 1 1013.5
20260507011433 61 324 1.0 3.0 0.00 0.00 0.00 1 1013.1
20260507011429 61 325 1.0 3.0 0.00 0.00 0.00 1 1013.3
20260507010427 61 9 1.0 3.0 0.00 0.00 0.00 1 1013.2
20260507005927 61 355 1.0 3.0 0.00 0.00 0.00 1 1013.0
20260507005427 61 12 1.0 3.0 0.00 0.00 0.00 1 1013.1
20260507004927 61 323 2.0 4.0 0.00 0.00 0.00 1 1013.1
20260507004427 61 344 1.0 4.0 0.00 0.00 0.00 1 1013.1
20260507003931 61 322 2.0 4.0 0.00 0.00 0.00 1 1013.0
20260507003927 61 319 1.0 4.0 0.00 0.00 0.00 1 1013.0
20260507002927 61 350 2.0 4.0 0.00 0.00 0.00 1 1012.8
20260507002427 61 309 1.0 3.0 0.00 0.00 0.00 1 1012.6
20260507001927 61 333 1.0 4.0 0.00 0.00 0.00 1 1012.8
20260507001432 61 5 1.0 7.0 0.00 0.00 0.00 1 1012.6
20260507001427 61 355 1.0 4.0 0.00 0.00 0.00 1 1012.7
20260507000424 61 338 1.0 7.0 0.00 0.00 0.00 1 1012.8
20260506235923 61 41 1.0 4.0 0.00 0.00 0.00 1 1012.9
20260506235423 61 332 2.0 4.0 0.00 0.00 0.00 1 1012.6
20260506234923 61 328 2.0 4.0 0.00 0.00 0.00 1 1012.5
20260506234423 61 321 1.0 3.0 0.00 0.00 0.00 1 1012.7
20260506233921 61 345 1.0 3.0 0.00 0.00 0.00 1 1012.8
20260506233421 61 324 1.0 2.0 0.00 0.00 0.00 1 1012.9
20260506232921 61 307 1.0 2.0 0.00 0.00 0.00 1 1012.7
20260506232421 61 333 1.0 4.0 0.00 0.00 0.00 1 1012.8
20260506231924 61 333 1.0 2.0 0.00 0.00 0.00 1 1012.7
20260506231920 61 0 1.0 4.0 0.00 0.00 0.00 1 1012.7
20260506230919 61 333 1.0 2.0 0.00 0.00 0.00 1 1012.5
20260506230419 61 17 0.0 2.0 0.00 0.00 0.00 1 1012.3
20260506225921 61 32 1.0 3.0 0.00 0.00 0.00 1 1012.3
20260506225917 61 342 1.0 3.0 0.00 0.00 0.00 1 1012.2
20260506224917 60 333 1.0 2.0 0.00 0.00 0.00 1 1012.3
20260506224415 60 332 1.0 2.0 0.00 0.00 0.00 1 1012.6
20260506223912 60 19 1.0 2.0 0.00 0.00 0.00 1 1012.6
20260506223412 60 315 1.0 5.0 0.00 0.00 0.00 1 1012.6
20260506222913 60 319 1.0 5.0 0.00 0.00 0.00 1 1012.4
20260506222415 60 315 1.0 4.0 0.00 0.00 0.00 1 1012.5
20260506222410 60 288 1.0 4.0 0.00 0.00 0.00 1 1012.5
20260506221409 60 5 1.0 3.0 0.00 0.00 0.00 1 1012.5
20260506220908 60 313 1.0 3.0 0.00 0.00 0.00 1 1012.4
20260506220409 60 316 1.0 3.0 0.00 0.00 0.00 1 1012.5
20260506215909 60 321 1.0 3.0 0.00 0.00 0.00 1 1012.5
20260506215408 60 0 1.0 3.0 0.00 0.00 0.00 1 1012.6
20260506214910 60 347 1.0 3.0 0.00 0.00 0.00 1 1012.7
20260506214906 60 0 2.0 4.0 0.00 0.00 0.00 1 1012.6
20260506214509 60 336 1.0 4.0 0.00 0.00 0.00 1 1012.6
20260506214009 60 351 2.0 4.0 0.00 0.00 0.00 1 1012.7
20260506212905 60 325 1.0 4.0 0.00 0.00 0.00 1 1012.5
20260506212405 60 339 1.0 4.0 0.00 0.00 0.00 1 1012.6
20260506211906 59 300 1.0 3.0 0.00 0.00 0.00 1 1012.6
20260506211406 59 324 2.0 3.0 0.00 0.00 0.00 1 1012.8
20260506210906 59 324 2.0 3.0 0.00 0.00 0.00 1 1012.7
20260506210405 60 312 2.0 4.0 0.00 0.00 0.00 1 1012.7
20260506205904 60 265 2.0 5.0 0.00 0.00 0.00 1 1012.8
20260506205404 60 331 2.0 5.0 0.00 0.00 0.00 1 1012.9
20260506204908 60 355 2.0 3.0 0.00 0.00 0.00 1 1012.7
20260506204904 60 315 2.0 3.0 0.00 0.00 0.00 1 1012.8
20260506203905 60 338 2.0 4.0 0.00 0.00 0.00 1 1012.9
20260506203405 60 329 2.0 4.0 0.00 0.00 0.00 1 1012.9
20260506202907 60 331 2.0 4.0 0.00 0.00 0.00 1 1012.9
20260506202903 60 337 2.0 4.0 0.00 0.00 0.00 1 1012.9
20260506201902 60 321 1.0 3.0 0.00 0.00 0.00 1 1013.0
20260506201402 60 315 1.0 3.0 0.00 0.00 0.00 1 1013.1
20260506200903 60 317 2.0 4.0 0.00 0.00 0.00 1 1012.9
20260506200403 60 355 2.0 4.0 0.00 0.00 0.00 1 1012.9
20260506195902 60 329 2.0 3.0 0.00 0.00 0.00 1 1013.0
20260506195402 60 324 2.0 4.0 0.00 0.00 0.00 1 1012.9
20260506194900 60 334 2.0 4.0 0.00 0.00 0.00 1 1012.8
20260506194400 59 325 2.0 7.0 0.00 0.00 0.00 1 1012.8
20260506193901 59 12 2.0 7.0 0.00 0.00 0.00 1 1013.0
20260506193401 59 332 2.0 4.0 0.00 0.00 0.00 1 1013.0
20260506192900 59 323 2.0 4.0 0.00 0.00 0.00 1 1013.3
20260506192401 58 5 2.0 5.0 0.00 0.00 0.00 1 1013.3
20260506191900 58 323 2.0 5.0 0.00 0.00 0.00 1 1013.4
20260506191400 59 332 2.0 4.0 0.00 0.00 0.00 1 1012.8
20260506190901 59 331 2.0 4.0 0.00 0.00 0.00 1 1013.4
20260506190401 59 309 2.0 4.0 0.00 0.00 0.00 1 1013.3
20260506185900 59 325 2.0 4.0 0.00 0.00 0.00 1 1013.2
20260506185400 59 311 2.0 3.0 0.00 0.00 0.00 1 1013.2
20260506184906 59 355 2.0 4.0 0.00 0.00 0.00 1 1013.3
20260506184901 59 305 2.0 4.0 0.00 0.00 0.00 1 1013.0
20260506183903 59 335 2.0 7.0 0.00 0.00 0.00 1 1013.6
20260506183859 59 307 2.0 7.0 0.00 0.00 0.00 1 1013.3
20260506182858 59 294 2.0 4.0 0.00 0.00 0.00 1 1013.3
20260506182357 59 277 2.0 4.0 0.00 0.00 0.00 1 1013.1
20260506181857 59 316 2.0 4.0 0.00 0.00 0.00 1 1013.2
20260506181356 59 326 2.0 5.0 0.00 0.00 0.00 1 1013.4
20260506180859 59 325 2.0 5.0 0.00 0.00 0.00 1 1013.0
20260506180855 59 302 2.0 5.0 0.00 0.00 0.00 1 1013.3